This demonstration page uses our WeatherBlox Daily Observations layout. Learn more.

Left ArrowRight Arrow

38.88101, -77.10428

Hourly Observations for July 17, 2021

Temp ( °F °C ) Dew Point ( °F °C ) Humidity (%) Winds ( mph kmh ) Pressure ( in mb ) Visibility ( mi km ) Precip ( " mm )
12:52 am 00:52 Mostly Cloudy 83 28.3 75 23.9 77 77 S 8 13 30.03 1017 10 16 N/A
1:52 am 01:52 Mostly Cloudy 82 27.8 73 22.8 74 74 SSW 7 11 30.03 1017 10 16 N/A
2:52 am 02:52 Mostly Cloudy 80 26.7 73 22.8 79 79 S 6 9 30.03 1017 10 16 N/A
3:52 am 03:52 Mostly Cloudy 81 27.2 71 21.7 72 72 SSW 9 15 30.03 1017 10 16 N/A
4:52 am 04:52 Mostly Cloudy 80 26.7 70 21.1 71 71 SSW 3 6 30.03 1017 10 16 N/A
5:52 am 05:52 Partly Cloudy 79 26.1 71 21.7 77 77 SSW 3 6 30.04 1017 10 16 N/A
6:52 am 06:52 Mostly Sunny 80 26.7 71 21.7 74 74 SSW 5 7 30.04 1017 10 16 N/A
7:52 am 07:52 Mostly Sunny 82 27.8 72 22.2 72 72 SW 8 13 30.05 1018 10 16 N/A
8:52 am 08:52 Mostly Cloudy 82 27.8 74 23.3 77 77 S 10 17 30.06 1018 10 16 N/A
9:52 am 09:52 Sunny 84 28.9 74 23.3 72 72 SSE 9 15 30.06 1018 10 16 N/A
10:52 am 10:52 Sunny 86 30 75 23.9 70 70 SSE 10 17 30.06 1018 10 16 N/A
11:52 am 11:52 Partly Cloudy 89 31.7 76 24.4 65 65 SSE 9 15 30.04 1017 10 16 N/A
12:52 pm 12:52 Partly Cloudy 91 32.8 76 24.4 61 61 SSE 15 24 30.03 1017 10 16 N/A
1:52 pm 13:52 Partly Cloudy 93 33.9 74 23.3 54 54 S 14 22 29.99 1016 10 16 N/A
2:23 pm 14:23 Mostly Cloudy with Nearby Thunderstorms 90 32.2 75 23.9 62 62 S 14 22 29.98 1015 10 16 N/A
2:39 pm 14:39 Mostly Cloudy 91 32.8 74 23.3 57 57 S 15 24 29.97 1015 10 16 N/A
2:52 pm 14:52 Mostly Cloudy 93 33.9 75 23.9 56 56 S 13 20 29.96 1015 10 16 N/A
3:09 pm 15:09 Mostly Cloudy with Thunderstorms 93 33.9 75 23.9 56 56 S 17 28 29.97 1015 10 16 N/A
3:24 pm 15:24 Mostly Cloudy 92 33.3 75 23.9 58 58 S 18 30 29.95 1014 10 16 N/A
3:52 pm 15:52 Mostly Cloudy 93 33.9 73 22.8 52 52 S 21 33 29.95 1014 10 16 N/A
4:11 pm 16:11 Mostly Cloudy with Nearby Thunderstorms 91 32.8 71 21.7 52 52 S 17 28 29.96 1014 10 16 N/A
4:26 pm 16:26 Mostly Cloudy with Light Rain 89 31.7 72 22.2 57 57 S 15 24 29.96 1014 10 16 0.00 0.00
4:52 pm 16:52 Mostly Cloudy with Light Rain 88 31.1 72 22.2 59 59 SW 16 26 29.96 1015 10 16 0.00 0.00
5:52 pm 17:52 Cloudy 89 31.7 68 20 50 50 S 9 15 29.96 1015 10 16 0.00 0.00
6:52 pm 18:52 Cloudy 88 31.1 69 20.6 54 54 SSW 13 20 29.96 1015 10 16 N/A
7:52 pm 19:52 Cloudy 86 30 69 20.6 57 57 SSW 14 22 29.96 1014 10 16 N/A
8:52 pm 20:52 Cloudy 85 29.4 68 20 57 57 W 7 11 29.98 1015 10 16 N/A
9:52 pm 21:52 Cloudy 80 26.7 69 20.6 69 69 NW 7 11 30.00 1016 10 16 N/A
10:52 pm 22:52 Cloudy 79 26.1 69 20.6 72 72 S 6 9 29.97 1015 10 16 0.00 0.00
11:52 pm 23:52 Mostly Cloudy 78 25.6 68 20 71 71 SW 7 11 29.99 1016 10 16 N/A

Powered by AerisWeather